weather.gov     
National Weather Service

Regional Weather Roundup
NWS Homepage
This page is being discontinued on March 12, 2014.
The same data is available at this site. Please update your bookmarks.
Thank you, and we apologize for the inconvenience.
Please send an email to SR-SRH.Webmaster@noaa.gov with any concerns.


Current Version
Previous Version:    01  02  03  04  05  06  07  08  09  10  11  12  13  14  15  16  17  18  19  20  21  22  23  24  25  26  27  28  29  30  
   31  32  33  34  35  36  37  38  39  40  41  42  43  44  45  46  47  48  49  50  51  52  53  54  
[Printable]
627
ASUS46 KSGX 240110
RWRSGX

SAN DIEGO HOURLY WEATHER ROUNDUP
NATIONAL WEATHER SERVICE SAN DIEGO CA
500 PM PST SUN NOV 23 2014

NOTE: "FAIR" INDICATES FEW OR NO CLOUDS BELOW 12,000 FEET WITH NO
SIGNIFICANT WEATHER AND/OR OBSTRUCTIONS TO VISIBILITY.

CAZ042-043-060-061-PZZ750-775-240200-

GREATER SAN DIEGO AREA

CITY           SKY/WX    TMP DP  RH WIND       PRES   REMARKS
LINDBERGH FLD  MOCLDY    70  48  45 N5        30.09R
POINT LOMA       N/A     67  42  39 N9          N/A
NATIONAL CITY    N/A     69  58  68 CALM      30.09R
CHULA VISTA      N/A     67  59  75 CALM      30.02R
IMPERIAL BEACH MOCLDY    65  57  75 SW5       30.09R
BROWN FIELD    MOCLDY    65  56  72 W7        30.09R
MIRAMAR MCAS   MOCLDY    67  46  47 N7        30.07S
MONTGOMERY FLD MOCLDY    67  46  47 N9        30.08R

$$

NORTH SAN DIEGO COUNTY

CITY           SKY/WX    TMP DP  RH WIND       PRES   REMARKS
CAMP PENDLETON PTCLDY    67  46  47 CALM      30.07R
OCEANSIDE AP   PTCLDY    66  53  63 SE5       30.06R
OCEANSIDE HBR    N/A     67  58  73 SE2       30.09S
VISTA            N/A     67  53  60 CALM      30.06S
CARLSBAD       MOCLDY    67  47  48 SE3       30.07S
DEL MAR          N/A     65  52  63 CALM      30.10S
LA JOLLA SCRIP   N/A     66  55  66 CALM      30.05S
FALLBROOK        N/A     66  44  44 CALM      30.09R
ESCONDIDO        N/A     70  20  15 E6        30.10S
SAN MARCOS       N/A     68  49  51 CALM      30.07R
POWAY            N/A     71  19  14 E10       30.10R

$$

EAST SAN DIEGO COUNTY

CITY           SKY/WX    TMP DP  RH WIND       PRES   REMARKS
RAMONA         MOCLDY    65  11  12 NE12      30.10S
SANTEE LAKES     N/A     71  21  15 CALM      30.09R
LA MESA          N/A     67  57  69 W5        30.02R
JAMUL            N/A     69  48  46 CALM      30.09R
DESCANSO N       N/A     55  15  20 E2        30.04R
MT. LAGUNA OBS   N/A     41   7  24 NE12      29.76R
CAMPO            N/A     58  10  15 NE13G24   30.10R

$$

ORANGE COUNTY AND THE LOS ANGELES BASIN

CITY           SKY/WX    TMP DP  RH WIND       PRES   REMARKS
JOHN WAYNE AP  MOCLDY    76  10   8 CALM      30.07S
LAKE FOREST FR   N/A     69   5   8 NE12      29.98R
SANTA ANA        N/A     70  45  41 CALM      30.03S
HUNTINGTON BCH   N/A     67  55  64 CALM      30.09S
LOS ALAMITOS   FAIR      68  44  40 S5        30.08R
FULLERTON      MOCLDY    73  34  23 CALM      30.07R
LONG BEACH     MOCLDY    73  37  27 W7        30.07S
L.A. AP        MOCLDY    74   7   7 N9        30.08R
L.A. DOWNTOWN  MOCLDY    74   9   8 VRB3      30.07R

$$

THE INLAND EMPIRE

CITY           SKY/WX    TMP DP  RH WIND       PRES   REMARKS
CORONA         PTCLDY    70  -5   5 NE12      30.11R
CHINO          PTCLDY    69   4   7 E14       30.10R
ONTARIO        MOCLDY    73 -15   3 NE9G18    30.10R
SAN BERNARDINO PTCLDY    66  10  11 SE8       30.12R
RIVERSIDE AP   PTCLDY    70   2   7 NE9G20    30.11R
RIV CYN CREST    N/A     69  27  20 E2          N/A
MORENO VALLEY    N/A     65  18  17 E1        29.30R
MARCH ARB      PTCLDY    65   5   9 E9        30.12R
HORSETHIEF CYN   N/A     66   3   8 W3        30.15R
PERRIS           N/A     67  12  12 SW8       30.11R
MENIFEE          N/A     66  21  18 NW5       30.15R
HEMET EAST       N/A     64  15  15 CALM      30.12R
FRENCH VALLEY  FAIR      64   7  10 SE8       30.11R
TEMECULA         N/A     69  20  15 S2        30.05R

$$

SAN BERNARDINO AND RIVERSIDE COUNTY MOUNTAINS

CITY           SKY/WX    TMP DP  RH WIND       PRES   REMARKS
BIG BEAR AP    PTCLDY    39  -4  16 CALM      30.28R
PINE COVE        N/A     45  19  35 CALM      30.04S

$$

SOUTHERN DESERT INCLUDING THE COACHELLA VALLEY

CITY           SKY/WX    TMP DP  RH WIND       PRES   REMARKS
PALM SPRINGS   MOCLDY    70  13  11 NW6       30.16S
THOUSAND PALMS   N/A     68  14  12 N3        30.11S
PALM DESERT      N/A     70  28  20 CALM        N/A
THERMAL        PTCLDY    63  17  17 NW3       30.12R
BLYTHE         CLEAR     65   5   9 N9        30.12S
IMPERIAL AP    PTCLDY    64  33  31 NW5       30.11R
EL CENTRO NAS  MOCLDY    66  19  16 NW7       30.11S
YUMA AZ        PTCLDY    70   3   7 N16       30.08F
MEXICALI       PTCLDY    68  14  12 NW6       30.11

$$

UPPER DESERT

CITY           SKY/WX    TMP DP  RH WIND       PRES   REMARKS
VICTORVILLE AP PTCLDY    55   7  14 CALM      30.24S
HESPERIA         N/A     55  11  17 N2        30.34R
APPLE VALLEY     N/A     58   6  12 N1        30.26R
PALMDALE       MOCLDY    54  13  19 E5        30.23S
LANCASTER      MOCLDY    56  11  16 CALM      30.23R
EDWARDS AFB    PTCLDY    56   9  15 SE6       30.21R
DAGGETT        CLEAR     59   9  13 E6        30.22S
29 PALMS N     CLEAR     58  12  16 NW7       30.27S
NEEDLES        PTCLDY    63   4   9 N10       30.18R

$$

REGIONAL REPORTS

CITY           SKY/WX    TMP DP  RH WIND       PRES   REMARKS
SANTA BARBARA  PTCLDY    65  52  62 E3        30.11S
SANDBERG       MOCLDY    46  32  58 N7        30.26S
MT. WILSON       N/A     46  -4  12 MISG        N/A
LAS VEGAS NV   PTCLDY    59   9  13 VRB6      30.17F
PHOENIX AZ     PTCLDY    69   4   7 N7        30.01R
TIJUANA        MOCLDY    66  54  63 W8        30.11R
ENSENADA NW      N/A     75  32  20 E25       30.01R

$$

OFFSHORE ISLANDS

CITY           SKY/WX    TMP DP  RH WIND       PRES   REMARKS
CATALINA ARPT  PTCLDY    63  39  41 NW12      30.14S
SAN NICOLAS IS PTCLDY   N/A N/A N/A NW17      30.13R

$$

MARINE AND OFFSHORE BUOY REPORTS

STATION/POSITION SKY/WX   TEMP    WIND        PRES    SWELL
                          AIR SEA DIR/SP/G            HT/PER/DIR
                          (F)     (DEG/KT/KT) (MB)    (FT/S/D)
TANNER BANKS               65 65  330/ 14/ 17 1019.7R   8/320/14
S CLEMENTE BASIN           68 67  330/ 14/ 17 1018.2R   5/290/15
SAN NICOLAS IS.               63                N/A     7/310/15
SO. S. ROSA ISLA           63 63  330/ 17/ 21 1019.9S   8/14
W. S. BARBARA CH           64 62  320/ 19/ 23 1019.7F   8/300/14
M. S. BARBARA CH           68     250/ 12       N/A
S. MONICA BASIN            67 66  310/ 17/ 21 1019.4R   3/270/ 8
S PEDRO CHANNEL               67                N/A     2/250/13
DANA POINT                    66                N/A     2/260/13
CMP PENDLETON NS              67                N/A     2/260/11
OCEANSIDE OFFSHR              67                N/A     2/210/14
TORREY PINES OTR              67                N/A     3/270/13
LA JOLLA 1                 67 66   10/  6/  8 1018.5F
MISSION BAY BUOY              67                N/A     3/270/15
SAN DIEGO BAY                 67              1019.0R
POINT LOMA SOUTH              67                N/A     3/290/12

$$





U.S. Dept. of Commerce
NOAA National Weather Service
1325 East West Highway
Silver Spring, MD 20910
E-mail: w-nws.webmaster@noaa.gov
Page last modified: May 16, 2007
NATIONAL WEATHER SERVICE: for Safety, for Work, for Fun - FOR LIFE